Regional Weather Roundup
Issued by NWS Sioux Falls, SD

Home | Current Version | Previous Version | Graphics & Text | Print | Product List | Glossary On
Versions: 1 2 3 4 5 6 7 8 9 10 11 12 13 14 15 16 17 18 19 20 21 22 23 24 25 26 27 28 29 30 31 32 33 34 35 36 37 38 39 40 41 42 43 44 45 46 47 48 49 50
000
ASUS43 KFSD 271602
RWRFSD

WEATHER ROUNDUP FOR SE SOUTH DAKOTA/SW MINNESOTA/NW IOWA
NATIONAL WEATHER SERVICE SIOUX FALLS SD
1000 AM CST THU NOV 27 2014

NOTE: "FAIR" INDICATES FEW OR NO CLOUDS BELOW 12,000 FEET WITH NO
SIGNIFICANT WEATHER AND OR OBSTRUCTIONS TO VISIBILITY.


SDZ038>040-050-052>070-271700-
SOUTHEAST SOUTH DAKOTA

CITY           SKY/WX    TMP DP  RH WIND       PRES   REMARKS
CHAMBERLAIN    CLOUDY    13   5  69 SE15      30.34F WCI  -3
HURON          PTSUNNY    1  -6  72 SE10      30.45F WCI -15
MADISON        FAIR       0  -8  71 S7        30.45R WCI -13
MITCHELL       CLOUDY     7  -5  57 SE12      30.48R WCI  -8
SIOUX FALLS    PTSUNNY    4  -6  63 CALM      30.50R
WINNER         PTSUNNY   21  10  62 SE20      30.28F WCI   6
YANKTON        PTSUNNY    9  -2  61 E8        30.50S WCI  -4
$$

MNZ071-072-080-081-089-090-097-098-271700-
SOUTHWEST MINNESOTA

CITY           SKY/WX    TMP DP  RH WIND       PRES   REMARKS
FAIRMONT       SUNNY     -4  -9  77 NW7       30.50S WCI -18
JACKSON        SUNNY     -4  -9  77 NW5       30.48S WCI -15
LUVERNE        SUNNY      3  -8  60 SE3       30.49S
MARSHALL       SUNNY     -6 -11  77 CALM      30.51R
MONTEVIDEO     SUNNY      1  -8  66 CALM      30.53S
PIPESTONE      SUNNY      1  -9  60 SE3       30.44S
REDWOOD FALLS  SUNNY     -4  -9  79 NW3       30.53S
TRACY          SUNNY     -4  -8  81 NW3       30.50R
WINDOM         SUNNY     -6  -9  84 CALM      30.49R
WORTHINGTON    SUNNY     -4  -8  84 CALM      30.47S
$$

IAZ001>003-012>014-020>022-031-032-NEZ013-014-SDZ071-271700-
NORTHWEST IOWA

CITY           SKY/WX    TMP DP  RH WIND       PRES   REMARKS
DENISON        SUNNY      7  -9  47 CALM      30.53R
ESTHERVILLE    SUNNY     -6 -11  79 NW8       30.50S WCI -21
SIOUX CITY     CLOUDY     9  -7  48 E5        30.55S WCI   1
SPENCER        SUNNY     -1  -7  75 NW3       30.50S
$$

ABBREVIATIONS USED IN REMARKS
   TC - TEMPERATURE IN CELSIUS
  WCI - WIND CHILL INDEX
   HX - HEAT INDEX
  VSB - VISIBILITY




USA.gov is the U.S. government's official web portal to all federal, state and local government web resources and services.